Time,TemperatureF,DewpointF,PressureIn,WindDirection,WindDirectionDegrees,WindSpeedMPH,WindSpeedGustMPH,Humidity,HourlyPrecipIn,Conditions,Clouds,dailyrainin,SoftwareType,DateUTC
2013-02-23 00:14:00,79.7,73.0,0.00,WSW,257,18.0,20.0,80,0.00,,,0.00,weatherlink.com 1.10,2013-02-23 06:14:00,
2013-02-23 00:29:00,79.7,73.0,0.00,West,262,17.0,21.0,81,0.00,,,0.00,weatherlink.com 1.10,2013-02-23 06:29:00,
2013-02-23 00:44:00,79.7,74.0,0.00,West,267,15.0,20.0,83,0.00,,,0.00,weatherlink.com 1.10,2013-02-23 06:44:00,
2013-02-23 00:59:00,79.5,73.0,0.00,West,264,18.0,20.0,81,0.00,,,0.00,weatherlink.com 1.10,2013-02-23 06:59:00,
2013-02-23 01:14:00,79.6,74.0,0.00,West,261,15.0,20.0,83,0.00,,,0.00,weatherlink.com 1.10,2013-02-23 07:14:00,
2013-02-23 01:29:00,79.6,74.0,0.00,West,265,16.0,20.0,82,0.00,,,0.00,weatherlink.com 1.10,2013-02-23 07:29:00,
2013-02-23 01:44:00,79.4,73.0,0.00,West,263,21.0,21.0,81,0.00,,,0.00,weatherlink.com 1.10,2013-02-23 07:44:00,
2013-02-23 02:15:00,79.7,73.0,0.00,West,259,16.0,20.0,81,0.00,,,0.00,weatherlink.com 1.10,2013-02-23 08:15:00,
2013-02-23 02:30:00,79.5,74.0,0.00,WSW,256,16.0,20.0,82,0.00,,,0.00,weatherlink.com 1.10,2013-02-23 08:30:00,
2013-02-23 02:45:00,79.4,74.0,0.00,WSW,257,17.0,21.0,82,0.00,,,0.00,weatherlink.com 1.10,2013-02-23 08:45:00,
2013-02-23 03:00:00,79.4,74.0,0.00,WSW,252,16.0,21.0,82,0.00,,,0.00,weatherlink.com 1.10,2013-02-23 09:00:00,
2013-02-23 03:15:00,79.4,74.0,0.00,WSW,253,18.0,21.0,82,0.00,,,0.00,weatherlink.com 1.10,2013-02-23 09:15:00,
2013-02-23 03:30:00,79.3,73.0,0.00,West,264,13.0,21.0,82,0.00,,,0.00,weatherlink.com 1.10,2013-02-23 09:30:00,
2013-02-23 03:45:00,79.4,74.0,0.00,WSW,250,18.0,22.0,82,0.00,,,0.00,weatherlink.com 1.10,2013-02-23 09:45:00,
2013-02-23 04:00:00,79.2,73.0,0.00,West,263,19.0,20.0,82,0.00,,,0.00,weatherlink.com 1.10,2013-02-23 10:00:00,
2013-02-23 04:15:00,79.4,74.0,0.00,West,259,18.0,20.0,82,0.00,,,0.00,weatherlink.com 1.10,2013-02-23 10:15:00,
2013-02-23 04:30:00,79.4,74.0,0.00,West,274,17.0,21.0,83,0.00,,,0.00,weatherlink.com 1.10,2013-02-23 10:30:00,
2013-02-23 04:45:00,79.2,74.0,0.00,West,275,14.0,22.0,83,0.00,,,0.00,weatherlink.com 1.10,2013-02-23 10:45:00,
2013-02-23 05:16:00,79.1,74.0,0.00,West,263,14.0,17.0,84,0.00,,,0.00,weatherlink.com 1.10,2013-02-23 11:16:00,
2013-02-23 05:31:00,79.1,74.0,0.00,West,262,15.0,19.0,84,0.00,,,0.00,weatherlink.com 1.10,2013-02-23 11:31:00,
2013-02-23 05:46:00,79.1,74.0,0.00,WSW,257,17.0,19.0,84,0.00,,,0.00,weatherlink.com 1.10,2013-02-23 11:46:00,
2013-02-23 06:01:00,79.1,74.0,0.00,West,262,16.0,20.0,84,0.00,,,0.00,weatherlink.com 1.10,2013-02-23 12:01:00,
2013-02-23 06:16:00,79.3,75.0,0.00,WSW,254,16.0,19.0,85,0.00,,,0.00,weatherlink.com 1.10,2013-02-23 12:16:00,
2013-02-23 06:31:00,79.4,74.0,0.00,West,269,18.0,20.0,84,0.00,,,0.00,weatherlink.com 1.10,2013-02-23 12:31:00,
2013-02-23 06:46:00,79.6,74.0,0.00,West,271,16.0,21.0,84,0.00,,,0.00,weatherlink.com 1.10,2013-02-23 12:46:00,
2013-02-23 07:16:00,80.0,74.0,0.00,West,267,15.0,20.0,83,0.00,,,0.00,weatherlink.com 1.10,2013-02-23 13:16:00,
2013-02-23 07:31:00,80.1,74.0,0.00,West,260,16.0,20.0,82,0.00,,,0.00,weatherlink.com 1.10,2013-02-23 13:31:00,
2013-02-23 07:46:00,80.3,74.0,0.00,West,269,19.0,21.0,82,0.00,,,0.00,weatherlink.com 1.10,2013-02-23 13:46:00,
2013-02-23 08:01:00,80.4,74.0,0.00,West,271,15.0,20.0,80,0.00,,,0.00,weatherlink.com 1.10,2013-02-23 14:01:00,
2013-02-23 08:16:00,80.7,74.0,0.00,West,270,15.0,21.0,80,0.00,,,0.00,weatherlink.com 1.10,2013-02-23 14:16:00,
2013-02-23 08:32:00,80.8,74.0,0.00,West,271,15.0,22.0,80,0.00,,,0.00,weatherlink.com 1.10,2013-02-23 14:32:00,
2013-02-23 08:47:00,80.9,73.0,0.00,West,276,15.0,22.0,78,0.00,,,0.00,weatherlink.com 1.10,2013-02-23 14:47:00,
2013-02-23 09:02:00,80.8,74.0,0.00,West,259,14.0,21.0,80,0.00,,,0.00,weatherlink.com 1.10,2013-02-23 15:02:00,
2013-02-23 09:17:00,80.8,74.0,0.00,West,275,16.0,21.0,80,0.00,,,0.00,weatherlink.com 1.10,2013-02-23 15:17:00,
2013-02-23 09:32:00,81.0,74.0,0.00,WNW,282,18.0,20.0,79,0.00,,,0.00,weatherlink.com 1.10,2013-02-23 15:32:00,
2013-02-23 09:47:00,81.3,73.0,0.00,West,269,16.0,20.0,77,0.00,,,0.00,weatherlink.com 1.10,2013-02-23 15:47:00,
2013-02-23 10:02:00,81.4,74.0,0.00,West,279,14.0,19.0,77,0.00,,,0.00,weatherlink.com 1.10,2013-02-23 16:02:00,
2013-02-23 10:17:00,81.4,74.0,0.00,West,279,13.0,17.0,79,0.00,,,0.00,weatherlink.com 1.10,2013-02-23 16:17:00,
2013-02-23 10:32:00,81.6,73.0,0.00,West,276,15.0,20.0,74,0.00,,,0.00,weatherlink.com 1.10,2013-02-23 16:32:00,
2013-02-23 10:47:00,81.5,73.0,0.00,WNW,286,12.0,18.0,76,0.00,,,0.00,weatherlink.com 1.10,2013-02-23 16:47:00,
2013-02-23 11:02:00,81.7,73.0,0.00,West,277,13.0,19.0,74,0.00,,,0.00,weatherlink.com 1.10,2013-02-23 17:02:00,
2013-02-23 11:17:00,81.9,73.0,0.00,WNW,287,14.0,18.0,74,0.00,,,0.00,weatherlink.com 1.10,2013-02-23 17:17:00,
2013-02-23 11:32:00,82.1,72.0,0.00,West,279,12.0,16.0,72,0.00,,,0.00,weatherlink.com 1.10,2013-02-23 17:32:00,
2013-02-23 11:48:00,82.2,72.0,0.00,WNW,282,17.0,19.0,70,0.00,,,0.00,weatherlink.com 1.10,2013-02-23 17:48:00,
2013-02-23 12:03:00,82.2,72.0,0.00,WNW,288,13.0,18.0,72,0.00,,,0.00,weatherlink.com 1.10,2013-02-23 18:03:00,
2013-02-23 12:18:00,82.2,72.0,0.00,WNW,285,13.0,17.0,72,0.00,,,0.00,weatherlink.com 1.10,2013-02-23 18:18:00,
2013-02-23 12:33:00,82.5,72.0,0.00,West,279,12.0,15.0,70,0.00,,,0.00,weatherlink.com 1.10,2013-02-23 18:33:00,
2013-02-23 13:03:00,82.5,73.0,0.00,WNW,293,11.0,15.0,73,0.00,,,0.00,weatherlink.com 1.10,2013-02-23 19:03:00,
2013-02-23 13:18:00,82.4,73.0,0.00,WNW,293,11.0,17.0,73,0.00,,,0.00,weatherlink.com 1.10,2013-02-23 19:18:00,
2013-02-23 13:33:00,82.4,73.0,0.00,WNW,283,14.0,18.0,72,0.00,,,0.00,weatherlink.com 1.10,2013-02-23 19:33:00,
2013-02-23 13:48:00,82.2,72.0,0.00,WNW,291,12.0,16.0,72,0.00,,,0.00,weatherlink.com 1.10,2013-02-23 19:48:00,
2013-02-23 14:03:00,82.4,73.0,0.00,WNW,285,14.0,17.0,74,0.00,,,0.00,weatherlink.com 1.10,2013-02-23 20:03:00,
2013-02-23 14:18:00,82.4,73.0,0.00,WNW,288,14.0,18.0,72,0.00,,,0.00,weatherlink.com 1.10,2013-02-23 20:18:00,
2013-02-23 14:33:00,82.4,73.0,0.00,WNW,288,13.0,17.0,72,0.00,,,0.00,weatherlink.com 1.10,2013-02-23 20:33:00,
2013-02-23 14:48:00,82.2,72.0,0.00,WNW,289,15.0,18.0,71,0.00,,,0.00,weatherlink.com 1.10,2013-02-23 20:48:00,
2013-02-23 15:03:00,82.2,72.0,0.00,WNW,292,16.0,19.0,72,0.00,,,0.00,weatherlink.com 1.10,2013-02-23 21:03:00,
2013-02-23 15:19:00,82.1,73.0,0.00,WNW,288,17.0,20.0,73,0.00,,,0.00,weatherlink.com 1.10,2013-02-23 21:19:00,
2013-02-23 15:34:00,82.0,72.0,0.00,WNW,287,16.0,19.0,71,0.00,,,0.00,weatherlink.com 1.10,2013-02-23 21:34:00,
2013-02-23 15:49:00,82.0,73.0,0.00,WNW,290,15.0,18.0,73,0.00,,,0.00,weatherlink.com 1.10,2013-02-23 21:49:00,
2013-02-23 16:04:00,81.8,73.0,0.00,WNW,290,15.0,19.0,74,0.00,,,0.00,weatherlink.com 1.10,2013-02-23 22:04:00,
2013-02-23 16:19:00,81.9,72.0,0.00,WNW,284,15.0,19.0,72,0.00,,,0.00,weatherlink.com 1.10,2013-02-23 22:19:00,
2013-02-23 16:34:00,81.8,72.0,0.00,WNW,291,17.0,21.0,71,0.00,,,0.00,weatherlink.com 1.10,2013-02-23 22:34:00,
2013-02-23 16:49:00,81.5,73.0,0.00,WNW,292,16.0,19.0,75,0.00,,,0.00,weatherlink.com 1.10,2013-02-23 22:49:00,
2013-02-23 17:04:00,81.4,74.0,0.00,WNW,287,16.0,19.0,77,0.00,,,0.00,weatherlink.com 1.10,2013-02-23 23:04:00,
2013-02-23 17:19:00,81.2,73.0,0.00,WNW,286,16.0,17.0,76,0.00,,,0.00,weatherlink.com 1.10,2013-02-23 23:19:00,
2013-02-23 17:34:00,81.2,73.0,0.00,WNW,285,13.0,19.0,77,0.00,,,0.00,weatherlink.com 1.10,2013-02-23 23:34:00,
2013-02-23 17:49:00,80.9,73.0,0.00,WNW,286,17.0,20.0,76,0.00,,,0.00,weatherlink.com 1.10,2013-02-23 23:49:00,
2013-02-23 18:04:00,80.8,73.0,0.00,West,280,14.0,18.0,78,0.00,,,0.00,weatherlink.com 1.10,2013-02-24 00:04:00,
2013-02-23 18:35:00,80.2,74.0,0.00,WNW,286,13.0,19.0,80,0.00,,,0.00,weatherlink.com 1.10,2013-02-24 00:35:00,
2013-02-23 18:50:00,80.1,74.0,0.00,West,276,11.0,15.0,81,0.00,,,0.00,weatherlink.com 1.10,2013-02-24 00:50:00,
2013-02-23 19:05:00,79.9,74.0,0.00,West,276,11.0,15.0,82,0.00,,,0.00,weatherlink.com 1.10,2013-02-24 01:05:00,
2013-02-23 19:20:00,79.7,74.0,0.00,West,275,11.0,15.0,82,0.00,,,0.00,weatherlink.com 1.10,2013-02-24 01:20:00,
2013-02-23 19:35:00,79.6,74.0,0.00,West,269,15.0,17.0,82,0.00,,,0.00,weatherlink.com 1.10,2013-02-24 01:35:00,
2013-02-23 19:50:00,79.6,74.0,0.00,West,281,15.0,18.0,83,0.00,,,0.00,weatherlink.com 1.10,2013-02-24 01:50:00,
2013-02-23 20:05:00,79.5,74.0,0.00,West,269,13.0,18.0,82,0.00,,,0.00,weatherlink.com 1.10,2013-02-24 02:05:00,
2013-02-23 20:20:00,79.4,74.0,0.00,West,272,15.0,17.0,82,0.00,,,0.00,weatherlink.com 1.10,2013-02-24 02:20:00,
2013-02-23 20:35:00,79.5,74.0,0.00,West,280,12.0,16.0,84,0.00,,,0.00,weatherlink.com 1.10,2013-02-24 02:35:00,
2013-02-23 20:50:00,79.5,74.0,0.00,West,277,16.0,18.0,83,0.00,,,0.00,weatherlink.com 1.10,2013-02-24 02:50:00,
2013-02-23 21:20:00,79.5,74.0,0.00,West,276,9.0,12.0,83,0.00,,,0.00,weatherlink.com 1.10,2013-02-24 03:20:00,
2013-02-23 21:35:00,79.3,73.0,0.00,West,275,12.0,13.0,81,0.00,,,0.00,weatherlink.com 1.10,2013-02-24 03:35:00,
2013-02-23 21:50:00,79.4,74.0,0.00,West,269,8.0,13.0,82,0.00,,,0.00,weatherlink.com 1.10,2013-02-24 03:50:00,
2013-02-23 22:05:00,79.5,74.0,0.00,West,280,9.0,12.0,82,0.00,,,0.00,weatherlink.com 1.10,2013-02-24 04:05:00,
2013-02-23 22:20:00,79.4,74.0,0.00,WNW,282,10.0,11.0,82,0.00,,,0.00,weatherlink.com 1.10,2013-02-24 04:20:00,
2013-02-23 22:35:00,79.3,73.0,0.00,West,279,6.0,11.0,80,0.00,,,0.00,weatherlink.com 1.10,2013-02-24 04:35:00,
2013-02-23 22:50:00,79.3,73.0,0.00,West,279,8.0,9.0,81,0.00,,,0.00,weatherlink.com 1.10,2013-02-24 04:50:00,
2013-02-23 23:05:00,79.4,74.0,0.00,West,268,9.0,13.0,82,0.00,,,0.00,weatherlink.com 1.10,2013-02-24 05:05:00,
2013-02-23 23:20:00,79.3,73.0,0.00,West,267,10.0,15.0,81,0.00,,,0.00,weatherlink.com 1.10,2013-02-24 05:20:00,
2013-02-23 23:35:00,79.4,74.0,0.00,West,262,12.0,14.0,82,0.00,,,0.00,weatherlink.com 1.10,2013-02-24 05:35:00,
2013-02-23 23:50:00,79.4,74.0,0.00,West,271,13.0,14.0,82,0.00,,,0.00,weatherlink.com 1.10,2013-02-24 05:50:00,